GFSSW_sfc_temp_018.txt.gz
Temp
60 60 60 60 59 59 59 59 58 58 59 59 59 60 60 59 59 60 62 71 69 67 65 68 69 66 64 61 59 54 49 43 44 47 49 55 52 55 59 59 58 59 59 60 66
60 61 60 60 59 59 59 58 58 58 59 59 59 59 59 58 60 65 72 71 68 67 67 66 66 65 62 57 58 53 47 46 54 53 49 52 53 57 57 54 55 56 58 61 64
59 60 60 60 59 59 58 58 58 58 59 59 59 59 58 57 64 67 70 69 67 66 66 66 66 67 60 57 56 50 50 53 55 55 54 54 56 57 56 50 59 60 58 60 60
59 59 59 59 59 58 58 57 58 58 59 59 59 59 58 58 54 70 70 70 69 66 71 69 67 62 56 57 57 56 56 56 56 58 57 53 54 55 52 60 66 62 62 60 60
57 58 58 59 59 58 57 57 58 58 58 59 59 59 57 62 62 76 70 74 74 75 70 67 65 59 55 57 58 57 56 59 59 62 58 59 55 56 59 63 61 61 61 61 61
57 57 57 58 58 58 58 57 57 58 58 59 59 59 59 58 74 74 74 76 72 71 68 69 63 62 60 57 57 57 56 56 58 57 57 56 55 55 60 58 59 60 58 58 60
57 57 57 58 58 58 58 57 57 58 58 59 60 61 63 62 71 72 76 70 69 69 67 67 66 64 59 57 60 58 56 57 59 56 55 53 53 54 59 57 59 58 58 58 59
57 57 57 57 57 57 57 57 57 58 58 59 60 61 60 74 70 75 74 73 73 72 70 68 69 64 61 59 58 53 51 46 56 57 55 55 48 59 56 54 58 57 56 58 59
57 57 57 57 57 57 57 56 57 58 59 59 61 62 59 76 72 72 72 70 71 72 70 74 67 57 57 50 46 47 40 42 50 53 53 53 49 57 58 56 57 55 54 55 56
57 57 57 57 56 55 55 57 58 57 60 65 68 61 68 65 69 71 69 70 68 66 66 63 56 52 49 48 38 40 41 44 42 52 52 46 48 52 54 53 53 52 52 52 53
57 57 57 57 56 55 55 57 61 61 63 58 59 61 64 71 70 70 67 68 66 61 53 55 50 44 45 47 49 47 43 41 44 50 49 45 45 50 51 51 50 49 50 51 54
56 57 57 57 57 58 59 59 57 60 55 64 63 64 67 66 63 67 69 62 59 51 53 52 46 51 54 53 49 47 43 43 48 50 47 47 46 49 52 49 49 49 50 51 51
56 56 56 57 58 60 59 57 62 60 54 61 64 63 65 67 59 62 65 58 56 53 50 47 50 55 54 50 49 46 43 42 44 48 46 45 45 48 52 53 54 53 52 53 53
55 55 56 57 62 57 57 60 60 60 45 54 60 63 66 64 59 64 64 59 57 50 50 50 54 53 51 49 47 42 49 48 46 42 38 44 36 44 47 49 51 53 52 52 54
55 55 57 62 60 57 60 59 59 60 30 56 60 68 64 61 58 62 63 61 51 50 51 47 49 49 49 48 49 48 49 45 44 40 37 42 37 43 46 46 49 51 52 51 54
55 56 57 61 57 55 58 56 59 42 32 51 58 57 58 59 58 60 58 61 56 52 52 48 53 52 50 52 50 53 46 45 42 39 32 37 37 38 41 44 48 50 53 55 54
55 57 60 59 57 57 56 56 42 34 54 49 51 56 54 52 54 54 50 47 43 42 40 48 48 52 53 49 52 48 39 30 30 29 30 41 37 39 47 50 50 51 52 50 49
56 57 57 58 56 57 56 49 37 44 47 53 53 53 49 51 50 50 47 43 48 45 39 37 37 48 54 47 43 43 40 28 26 25 29 39 33 41 50 52 54 53 49 48 47
57 55 54 57 57 56 52 37 38 46 51 50 52 47 46 50 49 48 44 43 45 46 39 36 39 50 51 50 48 43 37 42 33 31 27 32 38 45 47 48 49 47 48 46 46
56 53 54 56 57 55 44 41 46 52 53 52 44 46 42 46 45 45 43 48 47 49 47 43 36 46 50 50 51 47 48 35 31 21 25 31 33 36 42 44 46 45 44 46 47
55 52 57 56 57 49 39 40 49 55 55 50 47 45 45 44 45 42 43 48 50 49 49 44 39 41 44 43 40 42 39 38 38 32 23 23 30 42 42 44 43 43 45 45 46
51 47 57 57 49 39 42 50 51 52 56 53 51 49 46 45 43 43 43 46 52 49 44 44 37 31 39 46 46 43 40 39 28 30 29 27 30 45 46 45 44 44 46 46 48
50 50 56 57 38 34 47 50 52 52 51 50 48 50 49 44 40 44 45 49 51 48 43 44 35 28 36 41 44 41 41 40 36 31 31 28 30 46 47 47 45 44 45 46 48
50 42 49 48 46 47 46 45 47 53 52 52 50 51 47 43 46 41 43 49 50 48 48 48 37 35 29 36 38 35 38 39 37 30 31 33 37 45 46 42 43 44 44 46 46
47 44 45 38 44 46 47 48 47 46 51 52 48 48 45 38 39 39 43 46 48 48 45 44 35 36 37 39 39 39 38 38 35 36 33 37 35 41 42 40 43 45 45 47 48
48 46 43 42 47 46 43 45 47 48 49 46 46 46 46 42 43 39 42 40 42 44 40 41 32 32 31 36 35 33 37 38 37 36 37 38 36 42 43 43 44 44 45 44 43
46 47 47 38 39 39 39 47 49 50 49 51 49 45 39 46 48 46 48 47 44 41 39 37 32 28 25 31 31 27 34 35 37 39 39 33 40 41 40 42 42 43 42 40 43

GFSSW_sfc_temp_021.txt.gz
Temp
61 60 60 60 60 59 59 59 58 58 59 59 60 60 60 59 58 63 72 77 75 66 67 73 74 73 74 71 68 67 61 55 58 59 62 66 67 69 70 68 68 70 70 70 75
60 60 61 60 59 59 59 58 58 58 59 59 59 59 59 59 64 72 77 68 66 66 75 74 71 72 69 69 67 65 59 59 64 65 66 67 68 69 68 67 67 67 68 70 72
60 60 59 60 60 59 59 58 58 58 59 59 59 59 59 58 71 73 70 68 67 68 75 74 74 73 67 68 66 64 62 63 65 68 68 66 68 68 68 66 70 71 68 69 70
59 59 59 59 59 59 58 57 58 59 59 59 59 59 59 62 59 79 70 69 69 74 76 75 73 69 66 66 67 64 64 67 68 66 66 67 69 67 67 73 73 72 72 70 69
57 58 58 59 59 58 57 57 58 58 59 59 59 59 61 68 71 80 70 75 79 78 73 72 70 68 64 66 67 66 66 66 68 66 68 68 68 68 68 73 71 70 68 69 70
57 57 57 58 58 58 58 57 57 58 58 59 60 59 69 63 79 77 76 79 78 78 75 75 71 70 66 65 66 66 66 65 67 67 66 66 66 68 71 71 68 67 69 70 70
57 57 57 57 58 58 58 58 57 57 58 59 60 62 69 69 78 77 77 77 78 79 75 75 74 72 69 65 66 65 64 64 64 65 65 64 64 66 69 70 68 66 68 69 69
57 57 57 57 57 57 57 57 57 58 59 59 60 67 67 78 77 77 78 78 78 78 77 75 74 69 68 68 64 61 61 58 63 65 64 67 59 68 68 67 70 68 66 66 69
57 57 57 57 57 57 56 56 57 58 59 59 66 70 66 77 75 76 77 74 75 76 74 74 71 64 65 60 58 58 54 54 58 61 62 62 61 66 66 62 64 65 65 66 68
57 57 57 57 56 55 55 57 58 59 61 66 70 66 71 68 72 74 75 74 71 72 71 68 63 61 59 60 50 52 52 53 53 60 60 57 58 62 61 61 60 60 63 64 66
57 57 57 57 56 55 59 63 65 64 66 63 63 63 67 74 74 71 72 73 71 66 60 61 59 54 56 57 57 56 53 52 55 58 58 54 55 60 60 61 60 61 62 63 65
56 57 57 56 57 56 60 61 62 64 60 65 65 66 69 71 66 70 73 67 63 58 61 59 54 59 59 58 57 56 52 52 55 57 56 56 57 59 60 58 59 61 62 63 65
56 56 56 56 58 60 61 62 64 66 59 63 66 66 68 70 63 64 68 64 60 56 55 54 57 59 58 55 54 53 53 51 51 54 55 54 55 56 60 61 62 62 62 63 63
56 56 56 58 62 60 61 64 62 64 49 55 62 68 69 68 62 68 67 66 61 56 57 57 59 56 55 54 54 49 55 53 51 51 49 52 48 53 54 57 58 59 62 63 65
55 57 56 61 61 60 63 61 63 61 35 58 62 73 67 64 63 66 66 65 56 55 58 54 55 54 54 54 56 53 54 51 51 49 49 50 50 52 55 53 56 60 60 61 62
55 57 58 62 59 60 60 61 61 46 36 54 62 60 61 60 59 62 60 64 62 56 57 55 60 58 57 57 56 56 52 50 49 48 43 46 47 47 50 51 55 58 57 55 56
56 57 60 60 59 59 59 58 46 38 55 52 55 58 55 54 55 56 53 51 49 49 45 52 54 57 58 55 57 55 48 42 41 41 40 46 45 46 51 54 55 54 54 54 55
55 57 57 58 58 59 59 52 40 45 50 56 56 55 52 54 53 52 51 48 52 50 45 43 44 53 56 54 51 50 48 39 33 34 38 44 41 47 53 55 55 55 55 55 55
57 56 56 58 58 58 55 41 41 47 54 54 55 51 51 53 52 51 48 48 50 50 45 42 45 54 55 55 55 50 44 48 39 36 35 42 46 52 52 52 53 54 55 54 55
57 55 57 57 58 56 47 43 49 54 55 55 48 50 47 49 49 48 48 52 51 51 53 47 41 50 53 56 55 53 52 43 41 32 31 40 40 45 48 50 51 51 52 54 55
55 54 59 57 58 52 43 44 51 56 56 54 50 48 49 48 49 47 47 52 54 53 53 50 45 47 50 48 46 48 46 44 44 39 33 29 40 50 50 51 52 51 51 53 55
52 50 58 58 51 42 44 52 52 54 57 54 53 52 49 48 47 47 46 51 53 55 49 49 43 39 45 50 52 50 46 44 38 35 37 35 38 52 52 52 52 50 51 54 55
52 52 57 58 41 38 50 52 53 53 52 53 51 52 52 47 44 48 49 52 53 53 50 50 41 36 41 46 50 46 47 44 41 38 36 32 39 52 52 50 50 52 54 55 54
51 44 51 49 48 48 48 48 49 53 52 52 51 53 50 46 48 46 48 52 52 52 48 50 42 41 37 42 44 41 43 44 43 35 37 38 43 50 52 51 50 52 54 53 53
48 46 48 41 46 48 49 50 49 48 53 53 51 51 48 41 44 44 48 50 51 50 50 49 40 41 42 44 42 41 41 42 40 42 36 42 43 48 51 49 51 53 52 52 52
49 47 45 43 48 49 44 48 49 50 51 50 48 50 50 46 48 44 48 47 47 50 47 45 39 38 35 39 39 36 41 41 41 42 41 42 41 52 51 51 49 50 50 49 47
48 49 49 39 41 43 43 49 50 51 50 53 50 48 43 50 53 52 51 49 50 48 43 42 38 34 32 35 35 33 39 40 42 43 44 39 48 48 47 48 49 50 49 45 46

GFSSW_sfc_temp_024.txt.gz
Temp
61 61 60 60 60 60 60 59 59 59 59 60 60 60 60 60 59 76 82 80 78 67 70 83 84 84 86 82 83 83 75 70 69 70 71 78 76 79 81 78 77 79 81 83 84
61 61 61 61 60 59 59 59 58 59 59 59 59 60 60 59 78 85 76 68 67 66 83 85 83 84 83 80 83 84 75 70 75 76 76 77 77 78 77 77 77 79 80 82 82
60 60 61 60 60 60 59 59 58 59 59 59 59 60 59 65 81 83 70 68 68 71 87 87 87 86 80 83 80 79 72 75 75 78 80 78 77 80 77 74 80 79 81 82 81
59 59 60 60 60 59 59 58 58 59 59 59 60 60 59 77 67 89 71 70 70 84 85 86 86 81 78 76 80 73 76 78 77 77 77 76 80 76 79 80 82 84 85 83 81
58 58 59 59 59 59 58 57 58 58 59 59 60 60 71 80 79 92 72 81 92 90 88 85 83 81 76 78 79 76 75 77 77 76 77 76 76 76 78 83 83 83 83 83 83
57 57 58 58 58 58 58 57 57 58 59 59 60 59 80 72 89 91 89 91 91 91 87 87 82 85 78 76 76 75 76 75 76 76 75 73 75 77 79 82 80 80 82 84 84
58 57 57 58 58 58 58 58 57 58 58 60 61 72 82 77 91 92 89 88 89 88 85 85 86 82 81 75 77 76 72 75 74 75 73 76 73 74 79 80 78 79 81 84 84
58 58 57 57 57 57 58 57 57 58 59 60 61 77 76 88 93 89 91 88 89 89 87 86 88 81 78 78 75 73 73 68 72 74 73 76 69 76 79 77 79 79 79 80 82
58 58 57 57 57 57 57 57 57 59 60 61 77 81 74 84 84 87 87 84 85 85 85 84 84 77 77 74 70 71 66 64 66 72 72 72 68 75 77 73 76 79 80 80 82
58 58 58 57 57 56 56 57 59 61 69 76 82 78 80 76 82 83 86 84 82 82 82 81 81 76 77 74 63 62 63 63 63 69 71 68 68 72 73 74 73 75 77 77 78
58 59 59 58 56 55 60 76 77 77 81 73 74 74 77 83 84 83 82 82 82 80 73 74 74 66 68 69 68 66 63 62 66 68 66 65 67 69 73 75 74 75 75 76 77
57 57 58 58 56 55 72 78 72 77 70 76 76 77 79 80 76 80 86 77 75 70 71 71 63 67 69 68 66 64 61 61 64 66 64 66 66 69 71 70 72 74 74 76 77
57 57 58 58 56 67 77 72 74 76 73 72 75 76 76 81 71 74 79 75 73 68 69 66 65 67 66 65 63 63 60 59 59 64 65 65 63 65 68 71 72 73 75 75 73
56 57 58 56 66 74 72 73 76 74 66 64 70 75 78 77 70 78 77 74 70 65 68 65 67 65 64 61 63 59 63 61 60 60 59 63 57 60 65 66 68 70 71 71 72
56 58 57 58 73 76 72 75 75 74 48 65 70 83 78 72 71 73 77 76 66 64 66 60 63 63 61 60 63 59 62 60 59 59 59 60 59 58 64 61 64 66 67 68 69
56 58 59 73 74 71 74 74 74 61 45 61 70 68 69 70 68 73 72 76 71 67 69 64 68 66 64 64 63 64 61 59 60 60 50 56 56 58 61 59 63 65 65 65 67
56 57 68 74 72 72 73 75 60 52 61 59 62 67 65 62 64 66 64 61 61 57 56 62 62 66 66 63 65 65 59 52 47 48 49 56 54 55 59 61 63 62 64 65 67
55 59 60 71 74 71 75 68 51 54 58 64 64 65 60 62 61 62 61 60 63 61 59 55 51 61 64 60 57 58 57 48 38 44 50 53 51 55 61 64 64 64 64 65 65
57 72 72 69 70 72 72 56 54 59 63 62 64 59 58 61 61 60 58 57 59 61 55 53 52 62 61 63 61 57 54 57 46 44 44 55 54 59 61 60 61 62 64 63 64
75 73 71 69 69 73 66 52 58 62 64 64 57 59 55 58 58 58 56 58 57 60 62 55 50 58 60 63 63 60 60 50 52 37 37 52 50 55 54 58 59 60 61 62 64
72 70 69 69 70 72 59 57 60 63 64 62 59 57 58 56 58 55 54 57 61 59 62 59 54 54 58 56 54 57 55 54 54 48 40 38 50 60 59 61 58 60 60 61 63
68 64 69 69 65 63 60 62 56 63 65 63 63 61 58 57 55 54 53 57 60 61 56 57 54 49 52 57 59 58 54 54 46 42 45 43 46 62 62 60 59 59 59 62 63
70 68 71 69 55 55 59 59 62 62 61 62 59 61 61 56 52 56 56 58 61 60 57 58 51 46 48 54 57 54 55 54 51 47 42 36 47 61 61 59 63 59 62 63 63
70 56 67 69 64 63 59 58 57 62 60 62 59 62 59 56 58 54 54 57 58 59 48 55 53 49 45 50 53 49 53 54 51 40 44 46 51 59 62 62 62 62 62 63 62
67 59 60 55 59 62 62 61 58 56 61 63 59 60 58 50 54 53 56 56 57 52 57 57 47 51 53 54 54 51 50 52 49 50 42 48 52 58 61 61 61 60 61 60 61
64 61 60 57 60 62 54 59 59 57 61 57 58 59 60 55 57 52 56 56 55 57 56 55 47 45 42 50 51 46 51 52 51 51 52 52 50 62 62 62 58 58 59 58 57
62 62 64 48 55 58 57 59 60 62 58 62 62 59 53 59 63 61 61 60 59 56 52 50 46 41 38 44 43 36 47 50 51 54 52 46 55 59 58 56 57 57 58 57 54

GFSSW_sfc_temp_030.txt.gz
Temp
61 61 61 61 61 60 61 60 60 60 60 60 60 60 61 60 59 71 80 80 79 69 71 85 88 88 89 85 89 89 75 70 72 72 72 81 78 84 87 81 83 84 84 83 84
62 62 62 62 61 61 60 60 59 59 60 60 60 60 60 60 72 82 77 70 70 68 83 84 83 87 82 85 86 81 73 72 80 80 76 80 80 79 79 78 78 80 84 84 84
61 61 61 61 61 60 60 59 59 59 59 60 60 60 60 62 75 84 70 71 71 71 85 91 92 88 82 86 84 82 72 78 80 81 83 80 79 83 80 75 79 77 80 82 82
60 60 60 60 60 60 59 59 59 59 60 60 60 60 60 70 68 89 75 73 70 85 88 91 88 82 80 78 85 76 81 81 80 82 82 79 82 79 81 80 86 85 84 82 81
59 59 59 60 60 60 59 58 58 59 59 60 60 60 68 76 82 95 80 82 87 88 89 89 85 84 78 81 82 77 79 81 82 81 81 82 79 80 80 84 87 87 85 83 82
58 58 58 59 59 59 59 58 58 58 59 60 60 60 71 71 95 98 97 96 97 95 92 92 88 89 83 81 79 81 80 80 81 80 80 77 78 79 82 85 85 85 83 84 84
58 58 58 58 58 59 59 58 58 58 59 60 61 69 78 80 96 98 97 94 96 94 89 92 93 87 86 78 85 82 74 77 78 79 77 80 74 74 83 85 83 83 84 85 86
58 58 58 58 58 58 58 58 58 59 59 60 61 74 75 94 97 95 97 94 96 96 93 94 93 87 84 85 81 75 76 67 77 79 79 77 67 79 84 82 80 82 83 84 86
59 58 58 57 58 58 58 58 58 59 60 61 68 76 76 84 88 94 95 90 91 93 92 92 90 83 82 74 70 73 65 68 70 79 78 76 71 79 83 81 79 82 83 83 84
59 59 58 58 58 58 57 58 59 60 66 78 84 77 84 81 88 90 94 91 87 87 84 83 82 76 76 72 59 64 67 69 68 73 75 73 73 77 80 80 80 81 83 82 82
60 60 59 58 58 57 59 73 74 73 80 78 80 79 82 89 91 88 91 87 87 82 73 80 72 68 72 73 73 72 70 68 73 75 71 71 72 74 78 79 77 78 78 77 74
60 61 60 59 58 57 65 76 79 82 72 83 83 82 86 89 79 84 91 80 78 71 78 74 67 73 76 75 72 71 67 67 71 73 70 71 70 73 75 75 76 75 74 73 73
58 60 60 58 57 62 77 80 87 85 74 77 82 81 81 86 78 79 84 82 77 73 74 67 70 75 73 71 68 70 66 64 64 70 73 69 66 68 73 75 75 75 76 75 73
58 60 58 56 64 81 79 85 86 83 66 67 74 79 83 83 74 85 86 80 77 72 74 70 74 71 70 67 68 63 69 67 65 63 57 70 54 64 68 68 71 72 72 73 73
58 60 57 55 69 79 81 85 85 79 48 71 75 89 84 76 78 78 87 81 73 72 72 66 68 68 67 66 69 64 69 66 65 61 62 64 58 64 68 64 66 68 69 70 71
59 62 58 69 75 81 84 83 79 59 47 65 75 74 73 76 75 79 79 83 81 73 74 70 76 72 69 70 70 71 67 67 66 62 49 61 60 57 62 65 66 67 69 69 70
58 59 63 82 75 82 80 76 59 53 71 64 68 73 71 69 71 73 71 69 67 60 60 67 68 72 72 67 71 69 62 50 46 47 46 63 59 58 66 69 68 66 67 69 70
60 59 69 81 83 79 76 67 52 62 66 74 71 71 66 69 68 69 69 64 69 68 65 59 53 66 71 66 62 64 62 48 39 40 46 62 53 56 67 69 69 70 69 69 69
57 76 77 75 78 77 71 56 60 65 71 68 70 64 63 67 67 67 65 63 64 67 60 58 57 69 68 70 68 62 56 63 52 52 43 54 58 64 66 65 66 67 69 67 69
76 75 76 77 78 73 65 57 66 72 74 73 62 67 61 64 64 65 64 66 64 67 70 63 55 65 67 69 68 64 66 52 53 37 38 51 53 51 58 61 65 66 66 67 69
73 69 72 79 76 70 59 64 67 73 74 69 67 64 66 64 66 63 62 64 68 66 70 66 60 59 65 61 59 61 59 59 58 52 40 38 48 64 62 65 64 66 68 67 67
73 62 75 77 65 68 63 69 60 69 72 70 71 69 66 66 63 62 60 62 68 68 61 63 60 51 58 66 67 64 59 59 45 45 46 44 45 67 66 66 66 65 66 67 68
70 68 75 75 58 61 67 68 71 69 70 69 66 69 70 65 58 63 60 65 68 65 58 62 56 47 52 58 63 59 62 61 58 49 42 37 43 68 67 61 64 64 65 65 66
72 59 69 70 72 67 64 64 63 70 69 71 69 70 67 63 66 60 58 62 65 63 52 58 59 54 46 53 59 54 58 61 57 43 44 45 50 59 62 60 63 64 65 65 66
72 66 70 59 64 68 69 68 64 61 69 71 66 67 65 57 61 60 62 60 63 54 61 62 51 57 58 59 59 57 57 57 54 55 44 50 53 58 60 62 63 61 61 61 60
68 67 71 68 70 67 60 65 65 67 66 64 64 67 67 60 62 59 63 62 60 62 61 62 49 49 46 58 57 51 55 56 57 57 57 55 53 63 66 62 59 59 57 57 55
75 75 72 56 66 64 63 66 67 68 66 71 70 66 58 63 65 67 67 67 66 61 58 56 49 44 39 47 44 38 48 55 57 58 56 47 56 62 57 56 56 56 55 53 52

GFSSW_sfc_temp_033.txt.gz
Temp
61 61 61 61 60 60 60 60 59 59 59 60 60 60 60 60 59 62 66 73 74 68 69 77 78 78 75 72 75 72 58 58 62 62 63 68 68 74 74 73 74 74 72 73 76
62 62 62 61 60 60 60 59 59 59 59 59 59 60 60 59 63 70 77 71 68 67 75 75 75 77 70 71 71 66 58 62 69 68 65 65 69 69 68 69 68 70 75 76 75
61 61 61 61 60 60 60 59 59 59 59 59 59 60 59 59 65 74 73 70 68 67 76 80 81 78 70 70 70 65 61 68 69 71 72 67 68 73 67 63 68 67 70 72 72
60 60 60 60 60 60 59 59 59 59 59 59 60 60 60 61 60 76 72 70 68 73 77 77 77 71 66 65 71 66 70 72 70 73 72 69 68 70 67 68 75 74 74 72 71
58 58 59 59 60 59 59 58 58 59 59 59 60 60 61 64 70 87 72 72 75 78 77 77 75 71 66 70 72 67 68 72 73 72 72 74 69 70 69 74 77 76 76 74 73
58 58 58 58 59 59 58 58 58 58 59 59 60 60 61 63 87 88 87 86 84 79 79 79 77 80 74 70 68 71 71 70 68 71 70 68 68 68 67 75 74 76 72 72 74
58 58 58 58 58 58 58 58 58 58 59 60 60 65 66 69 83 83 88 83 86 84 80 81 80 76 73 70 74 73 65 67 68 69 67 67 61 65 71 74 74 74 73 73 76
58 58 57 57 57 57 58 57 57 58 59 59 60 63 64 86 81 87 85 84 87 87 84 83 81 75 72 73 72 66 62 56 66 69 70 67 54 66 72 73 70 70 73 72 73
58 58 57 57 57 57 57 57 58 59 59 60 60 61 67 81 80 84 82 82 84 84 80 88 78 70 71 61 55 58 51 56 61 70 66 63 59 65 70 72 67 67 68 70 67
58 58 57 57 57 56 56 58 58 58 61 70 73 64 74 75 80 82 80 84 78 77 75 72 68 61 60 56 47 53 54 60 56 61 63 59 57 64 68 68 63 65 64 65 64
59 58 58 57 57 56 54 58 62 61 65 65 69 71 78 81 83 79 83 79 77 72 61 68 58 53 57 61 63 61 59 57 57 65 60 57 57 62 63 64 62 62 63 62 63
59 59 59 58 58 57 55 62 68 69 61 75 77 76 81 80 74 77 81 70 68 62 66 61 54 64 69 66 64 63 59 55 60 65 61 57 55 61 65 63 62 62 61 61 62
58 59 59 58 57 56 61 68 76 72 60 71 76 76 76 78 71 71 75 72 67 63 63 57 62 70 68 63 61 60 56 55 56 61 60 56 52 58 63 65 67 64 63 63 61
58 59 57 55 57 64 63 74 74 68 52 63 69 73 78 77 68 78 77 71 68 62 63 61 68 67 64 61 61 54 62 61 59 53 45 56 41 52 58 59 62 61 59 59 61
58 59 55 58 59 65 70 74 72 66 33 65 70 79 76 70 70 70 75 72 63 65 63 57 60 61 60 60 63 57 62 59 57 51 47 52 45 49 59 55 57 57 59 58 59
59 59 56 60 58 67 71 70 65 48 36 61 70 68 66 69 70 72 70 73 71 66 64 61 67 63 61 65 64 65 59 58 56 50 37 50 48 45 53 56 57 59 60 60 59
59 57 60 70 62 69 67 62 45 39 65 59 61 67 65 63 66 67 64 60 55 50 51 60 60 63 66 58 62 59 50 37 36 34 35 52 48 48 56 61 60 58 58 59 59
59 56 63 69 68 67 63 54 41 57 60 67 65 65 60 63 63 64 61 54 60 58 54 49 45 58 65 59 53 55 52 34 31 30 36 52 42 47 58 61 61 61 59 60 59
57 63 63 64 68 65 57 43 47 59 66 63 64 58 58 63 60 61 56 55 57 58 50 49 50 61 64 63 60 54 46 55 44 40 33 42 48 55 58 58 63 62 63 58 59
60 61 61 66 67 61 52 48 58 67 68 66 56 60 53 57 57 56 56 60 58 60 59 56 47 60 62 62 61 57 59 43 41 30 30 40 43 43 50 54 59 59 58 62 60
59 56 62 67 64 56 44 51 62 70 67 62 60 58 59 57 58 56 55 59 61 60 60 54 50 51 58 54 51 52 50 50 49 39 30 27 36 52 54 56 56 58 60 57 56
58 50 63 64 52 50 48 61 59 65 66 65 63 63 59 59 56 56 53 56 63 61 54 54 51 40 50 58 60 56 52 52 32 37 35 31 35 56 53 55 57 57 61 59 58
55 54 64 62 42 45 57 63 65 63 63 62 60 63 62 56 51 54 54 59 61 56 50 53 47 34 43 50 56 51 55 55 50 38 34 26 33 58 60 57 58 57 58 57 57
55 46 54 56 57 54 56 57 58 64 63 66 63 63 58 55 59 51 52 58 58 56 52 53 51 43 34 44 50 45 51 52 48 30 34 36 42 51 50 51 53 52 53 53 53
58 52 56 45 51 54 57 59 57 56 62 64 59 60 57 48 53 51 53 54 56 53 54 52 42 47 48 51 51 49 48 49 46 46 35 41 46 51 52 50 51 53 54 52 51
56 56 57 53 58 55 52 57 57 60 60 58 56 60 58 52 53 50 54 52 51 54 52 54 38 39 37 48 47 43 47 47 49 49 47 47 45 51 52 53 51 51 50 49 48
60 62 56 50 53 51 52 58 60 60 59 63 60 54 48 54 56 56 56 56 56 52 49 46 38 32 30 39 36 31 41 48 49 50 48 39 46 50 48 47 46 45 47 46 45

GFSSW_sfc_temp_039.txt.gz
Temp
61 61 61 61 60 60 60 59 59 59 59 59 59 59 60 59 58 58 60 70 67 67 69 71 70 70 69 66 66 63 55 51 52 57 61 69 64 67 69 67 66 67 67 70 67
61 61 62 61 60 60 60 59 59 59 59 59 59 59 59 59 57 60 70 68 66 67 72 70 68 69 63 63 64 59 52 55 63 64 63 68 66 66 64 61 60 63 66 67 66
61 61 61 61 60 59 60 59 58 59 59 59 59 59 58 57 59 68 71 69 67 69 74 72 73 68 60 64 65 62 58 63 66 70 70 65 64 65 61 55 63 61 63 65 64
59 59 60 60 59 59 59 58 58 59 59 59 59 59 59 56 55 70 71 67 67 70 72 70 68 63 62 62 64 59 65 67 66 67 66 64 65 63 57 63 69 69 67 66 65
58 58 59 59 58 59 58 57 58 58 58 59 59 59 56 57 63 78 67 67 69 70 70 69 68 66 62 63 65 59 62 65 67 68 64 67 63 64 61 65 70 70 69 67 67
58 57 58 58 58 58 58 57 57 57 58 58 59 59 55 56 77 78 75 71 71 70 72 72 71 71 66 66 63 65 63 63 64 64 63 64 61 62 58 66 67 68 67 68 68
57 57 57 57 57 57 57 57 57 57 58 59 59 59 58 64 74 75 76 75 74 73 72 73 73 70 67 62 67 63 59 61 61 60 60 63 57 58 62 66 66 67 68 67 69
58 57 57 56 57 57 57 56 56 57 58 59 59 58 58 77 74 77 77 78 79 76 76 76 74 70 67 66 64 60 56 51 58 62 61 61 52 58 61 64 62 62 62 63 60
57 57 56 56 56 56 56 56 56 57 58 59 55 56 61 77 75 78 77 76 77 76 73 80 72 63 63 56 51 53 47 49 55 61 58 57 53 57 60 61 58 55 56 58 57
57 57 57 56 56 55 55 56 58 57 57 62 65 57 68 69 74 76 75 76 72 70 69 68 61 56 54 52 44 47 48 51 52 56 57 53 51 53 56 57 51 52 53 55 55
57 57 57 56 56 55 53 52 56 55 59 61 61 63 68 74 76 73 74 73 71 66 56 61 55 49 51 53 56 54 50 49 50 57 55 51 51 51 51 52 50 50 52 53 54
57 57 57 57 56 55 53 56 63 64 56 65 66 67 71 71 66 69 74 66 63 55 59 56 50 56 61 58 57 55 51 48 53 57 56 49 47 50 53 50 51 52 51 52 52
57 57 57 56 56 53 56 62 68 65 55 63 68 67 69 72 65 65 69 64 60 57 55 52 55 62 60 56 55 51 50 49 50 54 54 50 46 48 52 54 54 54 53 54 53
57 56 55 54 54 58 59 66 66 64 47 56 62 68 71 70 62 70 70 66 61 55 56 56 60 59 56 55 53 48 55 54 52 47 42 49 36 43 48 49 51 52 50 51 54
56 56 55 56 58 59 66 66 64 63 31 58 63 72 68 65 64 64 69 66 57 58 57 52 54 55 54 53 55 52 55 52 51 45 42 45 39 41 49 45 47 48 50 52 55
56 55 54 57 54 62 64 62 63 45 34 54 63 61 61 61 61 63 65 67 63 58 57 55 58 56 55 57 57 57 53 50 46 44 35 44 41 37 42 47 48 50 52 53 55
55 54 57 63 60 63 61 58 44 36 56 52 55 59 57 55 58 58 55 53 50 47 45 53 53 56 58 52 55 53 45 35 34 32 32 45 41 41 49 52 52 50 51 52 53
54 54 56 62 62 61 59 52 37 49 52 58 58 56 54 57 55 55 52 48 53 51 46 43 41 52 58 52 49 48 46 32 32 29 34 45 35 42 50 54 54 54 53 54 54
54 55 58 61 62 59 54 40 42 50 58 56 57 51 50 55 55 53 48 48 50 51 46 44 44 55 56 56 54 48 42 48 36 34 31 36 40 49 50 51 53 54 55 55 54
56 56 57 61 60 57 49 44 50 58 59 59 50 53 48 52 51 50 48 53 52 54 53 50 42 52 55 56 55 52 53 40 36 28 29 34 36 37 45 48 51 51 52 52 54
55 53 59 60 59 52 42 45 54 61 61 57 54 51 52 50 50 47 48 52 54 54 54 50 45 46 52 48 45 48 45 43 42 35 28 25 33 45 48 50 50 51 54 49 48
52 48 59 59 48 43 45 53 56 58 62 59 57 55 52 52 48 47 48 50 54 53 48 48 44 37 43 51 52 48 46 44 30 34 31 28 32 49 47 48 51 50 49 49 50
50 50 58 58 40 41 50 55 57 57 57 56 54 56 55 50 45 48 48 52 54 51 48 48 41 32 40 46 50 46 47 45 40 34 33 24 31 48 47 46 47 45 46 46 47
50 43 50 50 48 48 49 51 52 57 57 58 56 57 53 49 50 46 47 52 52 52 50 51 43 39 34 39 43 40 44 44 41 29 32 33 37 40 42 43 44 44 45 45 45
50 47 50 42 46 48 51 53 51 51 57 57 54 54 52 44 45 44 47 49 52 51 50 48 39 41 41 42 43 43 43 43 41 39 34 37 38 41 43 43 44 45 45 45 44
50 48 48 45 50 50 46 50 52 53 54 52 52 51 51 48 49 45 48 46 46 48 45 46 36 37 36 40 40 38 42 42 41 41 40 38 36 44 45 45 44 44 44 43 43
53 53 51 44 45 45 45 52 53 55 53 54 53 48 45 48 49 49 49 50 50 47 43 41 35 32 29 33 34 29 38 43 43 43 43 35 41 43 42 42 41 41 41 40 41

GFSSW_sfc_temp_042.txt.gz
Temp
61 61 61 61 61 60 60 59 59 59 59 59 59 59 59 59 58 55 57 68 65 67 68 67 66 64 63 61 62 61 54 47 48 56 58 66 65 68 68 65 65 65 63 64 64
61 61 61 61 60 60 59 59 59 58 59 59 59 59 59 58 54 57 67 68 67 67 69 66 62 63 59 60 63 56 49 54 60 63 62 67 65 65 63 60 60 59 63 64 63
61 61 61 61 60 60 59 59 59 58 59 59 59 59 58 57 56 65 70 68 67 69 71 70 67 65 59 62 60 58 55 60 64 68 74 66 63 63 61 56 61 60 59 61 61
59 59 59 60 59 59 58 58 58 58 59 59 59 59 58 54 52 67 67 66 67 69 71 66 65 61 61 61 63 59 64 65 65 67 66 63 63 59 56 64 67 65 63 62 61
58 58 58 59 59 58 58 57 57 58 58 58 59 59 54 55 61 70 67 67 68 69 68 66 63 64 59 62 63 61 62 64 66 66 64 65 60 61 60 63 66 66 64 62 63
58 57 57 58 58 58 57 57 57 57 57 58 59 59 53 54 73 72 69 68 69 69 68 68 67 67 64 63 62 64 61 62 63 63 64 63 60 61 58 62 63 64 63 63 64
58 57 57 57 57 57 57 57 57 57 57 58 59 58 55 62 72 72 73 72 70 70 68 70 71 68 66 63 64 63 59 62 60 59 59 62 55 53 57 63 62 63 63 62 62
58 57 57 56 56 56 57 56 56 57 57 58 59 55 55 73 70 74 73 75 72 71 72 73 73 68 64 63 63 59 55 50 56 60 58 58 50 56 57 61 57 59 61 58 57
57 57 56 56 55 55 56 56 56 57 58 59 53 54 59 75 72 77 74 72 72 72 72 77 70 62 61 55 51 53 46 47 52 58 57 56 51 55 55 58 54 55 54 55 55
57 57 56 56 55 55 54 56 57 56 57 61 62 54 65 66 72 73 72 73 69 68 69 66 59 55 52 51 43 46 47 49 49 53 56 52 47 49 51 55 51 50 50 52 52
56 56 56 56 56 54 52 50 53 52 54 57 60 61 65 72 72 69 71 70 68 65 55 59 55 50 49 52 54 53 49 47 48 54 53 46 45 46 48 49 47 47 48 50 51
56 56 56 56 56 55 50 52 59 62 53 62 63 64 68 69 63 68 73 63 61 54 56 54 49 55 56 55 54 52 48 46 50 54 53 46 43 46 49 47 47 47 48 49 50
55 56 56 56 55 52 51 59 66 63 54 61 63 64 67 69 62 63 67 62 58 55 53 51 52 59 57 54 53 50 48 45 48 49 51 47 43 44 49 50 51 51 50 51 50
55 56 55 54 52 54 56 65 64 63 46 54 60 66 68 67 60 68 67 64 60 54 54 52 57 56 54 53 51 46 52 51 49 46 41 46 37 41 45 46 48 49 48 49 51
55 55 54 56 54 56 64 64 62 61 32 56 60 69 65 63 62 63 66 64 55 54 55 49 51 52 52 50 53 49 54 50 48 43 40 43 38 40 45 44 45 46 48 49 51
55 55 54 54 52 58 62 61 60 44 33 52 61 59 59 59 59 60 62 65 61 55 55 51 55 54 52 54 54 55 50 48 44 42 35 40 39 37 40 44 46 48 50 52 52
54 54 55 60 58 60 59 57 44 36 54 50 53 57 55 53 55 55 53 51 49 45 44 51 51 54 56 51 53 50 44 33 33 32 31 42 39 40 46 49 50 49 50 51 51
54 53 54 58 60 59 57 51 37 47 49 54 54 54 51 53 52 52 50 47 51 49 44 41 40 50 56 50 48 45 44 32 32 29 33 42 34 41 48 51 52 53 52 52 51
53 51 54 59 59 58 53 40 42 47 54 54 54 49 47 52 52 50 46 46 48 48 45 42 42 52 53 53 52 45 40 45 35 33 30 34 39 45 47 47 50 51 51 50 51
53 54 55 59 58 55 48 43 49 54 55 55 47 50 45 48 48 47 46 50 49 51 51 48 41 49 52 54 53 48 50 39 35 28 28 32 34 36 42 45 48 48 48 51 51
54 51 56 57 57 51 41 45 51 58 58 55 51 48 49 48 48 45 46 49 51 51 52 47 44 44 49 45 43 46 42 40 39 34 27 23 32 43 46 48 48 49 51 47 46
50 46 56 56 48 41 43 51 53 56 57 56 55 53 50 48 46 45 46 48 51 51 47 46 42 37 42 48 49 46 43 42 30 33 30 28 31 45 44 48 49 47 46 45 46
48 49 57 56 40 39 48 53 54 54 53 54 52 54 52 47 44 45 46 51 51 49 48 48 40 33 39 44 47 43 44 41 38 33 31 23 30 46 45 44 44 42 43 44 45
49 43 48 49 46 47 48 49 50 55 54 55 53 54 50 46 48 44 45 50 50 49 49 49 41 38 34 38 41 39 42 41 40 28 32 32 35 39 41 41 41 42 42 43 43
47 45 48 41 44 46 50 52 50 49 54 55 52 52 49 42 42 42 45 47 50 50 47 46 38 38 38 39 40 40 40 40 39 38 35 36 36 41 42 41 41 43 43 43 42
48 46 46 43 49 48 45 49 50 51 51 50 51 48 49 46 48 44 46 45 45 46 43 44 36 36 35 37 37 37 40 40 39 38 38 36 37 43 42 43 42 42 42 42 41
50 52 50 41 43 44 44 49 52 53 51 52 52 48 44 47 48 47 47 47 47 45 41 39 34 33 29 32 33 29 37 39 40 41 40 35 40 41 39 41 40 40 41 40 41